Location: Antin
(43.3330°N, 0.2804°E)
Time: 05:07:35
(UTC+00:00)

Cosmos 1758 - Pass Details

Date: 16 October 2021
Orbit: 540 x 560 km, 82.5° (Epoch: 02 December)

Event Time Altitude Azimuth Distance (km) Brightness Sun altitude
Rises 18:00:22 0° 190° (S) 2,705 7.0 -9.2°
Reaches altitude 10° 18:02:32 10° 191° (SSW) 1,814 6.2 -9.6°
Maximum altitude 18:06:31 78° 278° (W) 563 3.5 -10.3°
Drops below altitude 10° 18:10:31 10° 6° (N) 1,818 5.9 -11.0°
Sets 18:12:41 0° 7° (N) 2,713 6.8 -11.4°
